Regional Weather Roundup
Issued by NWS Newport/Morehead, NC

Current Version | Previous Version | Graphics & Text | Print | Product List | Glossary On
Versions: 1 2 3 4 5 6 7 8 9 10 11 12 13 14 15 16 17 18 19 20 21 22 23 24 25 26 27 28 29 30 31 32 33 34 35 36 37 38 39 40 41 42 43 44 45 46 47 48 49 50
000 ASUS42 KMHX 211513 RWRMHX WEATHER ROUNDUP FOR EASTERN NORTH CAROLINA NATIONAL WEATHER SERVICE NEWPORT/MOREHEAD CITY NC 1000 AM EST TUE NOV 21 2017 NOTE: "FAIR" INDICATES FEW OR NO CLOUDS BELOW 12,000 FEET WITH NO SIGNIFICANT WEATHER AND/OR OBSTRUCTIONS TO VISIBILITY NCZ015>017-031-032-045>047-102-103-211600- NORTH COAST CITY SKY/WX TMP DP RH WIND PRES REMARKS EDENTON SUNNY 55 43 64 CALM 30.28R ELIZABETH CITY SUNNY 56 46 69 W6 30.27R KITTY HAWK SUNNY 54 42 62 CALM 30.25S MANTEO SUNNY 55 43 63 SW3 30.27S $$ NCZ045>047-081-094-103-104-211600- CENTRAL COAST CITY SKY/WX TMP DP RH WIND PRES REMARKS FRISCO SUNNY 63 48 58 CALM 30.27R $$ NCZ095-097-098-100-101-211600- SOUTHERN COAST CITY SKY/WX TMP DP RH WIND PRES REMARKS BEAUFORT CLOUDY 59 50 72 E7 30.25S CEDAR ISLAND NOT AVBL JACKSONVILLE CLOUDY 52 46 80 CALM 30.25S PINEY ISLAND NOT AVBL WILMINGTON CLOUDY 56 45 66 NE6 30.25R $$ NCZ011>013-027>030-043-044-078>080-089-090>093-098-211600- COASTAL PLAIN CITY SKY/WX TMP DP RH WIND PRES REMARKS AHOSKIE SUNNY 50 37 62 S5 30.26F CLINTON CLOUDY 49 40 71 CALM 30.26R ELIZABETHTOWN NOT AVBL GOLDSBORO MOSUNNY 48 38 69 SE5 30.24S GREENVILLE CLOUDY 48 41 76 CALM 30.27S HAVELOCK NOT AVBL KENANSVILLE CLOUDY 50 41 71 N3 30.26S KINSTON CLOUDY 52 39 62 CALM 30.27S NEW BERN MOSUNNY 52 45 77 CALM 30.27S RICHLANDS CLOUDY 54 43 66 N6 30.27R ROCKY MOUNT CLOUDY 49 40 71 SE3 30.24F WASHINGTON CLOUDY 50 42 74 CALM 30.27S WHITEVILLE MOSUNNY 50 41 71 NE3 30.24R $$ AMZ130-135-150-152-154-156-158-170-250-252-270-ANZ085-086-088-633-658-670-211600- MARINE OBSERVATIONS STATION/POSITION TIME TEMP WIND PRES WAVE SWELL AIR SEA DIR/SP/G HT/PER HT/PER (UTC) (F) (DEG/KT/KT) (MB) (FT/S) (FT/S) CHESAPEAKE LIGHT NOT AVBL 64 E VA BEACH 1450 59 61 240/ 12/ 14 1025.2 2/ 8 2/ 8 DUCK 1436 54 59 250/ 5/ 7 1024.4 2 E DUCK 1500 61 N/A 1/ 6 OREGON INLET 1436 57 53 180/ 1/ 2 1024.8 13E OREGON INLT 1448 62 N/A 2/ 7 2/ 7 HATTERAS CG 1436 58 57 30/ 3/ 4 1024.5 DIAMOND BUOY 1450 68 180/ 12/ 17 1024.8 2/ 8 2/ 8 CAPE LOOKOUT 1500 40/ 10/ 12 1024.4 BEAUFORT LAB 1436 58 58 30/ 2/ 5 1024.1 30 SE NEW RVR IN 1408 64 67 60/ 10/ 14 1023.7 30 SE NEW RVR IN 1500 67 N/A 2/ 8 27 SE WRIGHTSVLE 1408 65 68 40/ 10/ 16 1022.8 5 SE WRIGHTSVLE 1408 61 64 50/ 10/ 14 1023.4 225 S CAPE HAT 1450 71 76 110/ 19/ 23 1022.6 5/ 6 2/13 41 SE CHARLESTON 1450 72 74 130/ 14/ 17 1021.2 4/ 6 2/ 8 $$

USA.gov is the U.S. government's official web portal to all federal, state and local government web resources and services.